Weather in Tsentralnaya usadba Tretyego Goskonezavoda

Russia / Perm Krai     56°21′49″N   55°05′15″E
temp.,
°C
wind,
m/s
gust,
m/s
humid.,
%
clouds,
%
prec.,
mm/h
press.,
hPa
HPBL,
m
5 august, thu
thu523:00+20nne117996 0.7 100916
02:00+18n118523 0.0 100912
05:00+18nnw3996100 0.0 1009249
08:00+19nw578975 0.1 1010369
11:00+22nw68665 0.1 1011740
14:00+25nnw66520 0.0 10111204
17:00+25nnw664421 0.0 10121901
20:00+21n486178 0.0 1012379
6 august, fri
fri623:00+18nnw487554 0.0 1013250
02:00+14n359224 0.0 101478
05:00+16n2482100 0.0 1014137
08:00+18nnw24775 0.3 1015239
11:00+21nnw56490 0.4 10161540
14:00+23n56320 0.0 10161826
17:00+23nnw56323 0.0 10161908
20:00+20n3547100 0.0 1016126
7 august, sat
sat723:00+16nnw2256100 0.0 101714
02:00+13nnw227096 0.0 101714
05:00+12nnw227440 0.0 101813
08:00+16nnw245941 0.0 1019202
11:00+20nnw444119 0.0 10191195
14:00+17nnw4653100 0.0 1020470
17:00+16nw3557100 0.0 1020350
20:00+15wnw3563100 0.0 1020171
8 august, sun
sun823:00+14nw226599 0.0 102033
02:00+14nne227253 0.0 102029
05:00+12e018379 0.0 102110
08:00+15e1166100 0.0 1021121
11:00+17se115884 0.0 1021334
14:00+22n124674 0.0 1020741
17:00+24n22425 0.0 1020983
20:00+22nne225418 0.0 101932
9 august, mon
mon923:00+18ene3760100 0.0 1019151
02:00+16ese3668100 0.0 1019121
05:00+14e4868100 0.0 1018140
08:00+17ese4961100 0.0 1017215
11:00+25sse454294 0.0 1015610
14:00+31ne132993 0.0 10141210
17:00+32nw342491 0.0 10121693
20:00+27ene223966 0.0 101120